Key West NAF, FL

11:32 PM EDT on March 22, 2017 (GMT -0400)
Key West Naval Air Station

Weather History for KNQX - December, 2013

Change the Weather History Date:

Sunday, December 8, 2013

  Actual Average Record
Temperature  
Mean Temperature 78 °F -  
Max Temperature 82 °F 77 °F 85 °F (1978)
Min Temperature 75 °F 68 °F 55 °F (1997)
Cooling Degree Days 14    
Growing Degree Days 28 (Base 50)    
Moisture  
Dew Point 70 °F    
Average Humidity 74    
Maximum Humidity 89    
Minimum Humidity 58    
Precipitation  
Precipitation 0.00 in - - ()
Sea Level Pressure  
Sea Level Pressure 30.12 in    
Wind  
Wind Speed 11 mph (East)    
Max Wind Speed 17 mph    
Max Gust Speed 25 mph    
Visibility 10 miles    
Events      
Averages and records for this station are not official NWS values.
T = Trace of Precipitation, MM = Missing Value Source: NWS Daily Summary

Daily Weather History Graph

Daily Weather History Graph

Search for Another Location

Airport or City:

Trip Planner

Search our weather history database for the weather conditions in past years. The results will help you decide how hot, cold, wet, or windy it might be!

Date:

Astronomy

Dec. 08, 2013 Rise Set
Actual Time 6:58 AM EST 5:38 PM EST
Civil Twilight 6:34 AM EST 6:03 PM EST
Nautical Twilight 6:05 AM EST 6:31 PM EST
Astronomical Twilight 5:38 AM EST 6:59 PM EST
Moon 11:47 AM EST (12/8) 11:54 PM EST (12/8)
Length of Visible Light 11h 29m
Length of Day
10h 39m
Waxing Crescent, 40% of the Moon is Illuminated
Dec 8
Waxing Crescent
Dec 9
First Quarter
Dec 17
Full
Dec 25
Last Quarter
Jan 1
New

Hourly Weather History & Observations

Time (EST) Temp. Heat Index Dew Point Humidity Pressure Visibility Wind Dir Wind Speed Gust Speed Precip Events Conditions
12:53 AM 77.0 °F - 71.1 °F 82% 30.13 in 10.0 mi ENE 8.1 mph - N/A   Overcast
1:53 AM 75.9 °F - 71.1 °F 85% 30.11 in 10.0 mi ENE 11.5 mph - 0.00 in   Mostly Cloudy
2:53 AM 75.9 °F - 71.1 °F 85% 30.10 in 10.0 mi NE 6.9 mph - N/A   Mostly Cloudy
3:28 AM 75.2 °F - 71.6 °F 89% 30.10 in 10.0 mi East 10.4 mph - N/A   Overcast
3:53 AM 75.9 °F - 70.0 °F 82% 30.09 in 10.0 mi East 9.2 mph - N/A   Overcast
4:53 AM 75.9 °F - 72.0 °F 87% 30.11 in 10.0 mi East 9.2 mph - N/A   Scattered Clouds
5:53 AM 77.0 °F - 71.1 °F 82% 30.11 in 10.0 mi East 12.7 mph - N/A   Overcast
5:59 AM 77.0 °F - 69.8 °F 78% 30.12 in 10.0 mi East 13.8 mph 20.7 mph N/A   Mostly Cloudy
6:53 AM 77.0 °F - 70.0 °F 79% 30.14 in 10.0 mi East 11.5 mph - N/A   Scattered Clouds
7:53 AM 79.0 °F - 70.0 °F 74% 30.16 in 10.0 mi East 10.4 mph - N/A   Mostly Cloudy
8:53 AM 80.1 °F 82.7 °F 68.0 °F 67% 30.17 in 10.0 mi East 13.8 mph - N/A   Partly Cloudy
9:53 AM 82.0 °F 85.5 °F 69.1 °F 65% 30.17 in 10.0 mi East 16.1 mph 24.2 mph N/A   Partly Cloudy
10:53 AM 82.9 °F 85.8 °F 68.0 °F 60% 30.17 in 10.0 mi ESE 17.3 mph 25.3 mph N/A   Partly Cloudy
11:53 AM 82.9 °F 85.4 °F 66.9 °F 58% 30.15 in 10.0 mi ESE 17.3 mph 25.3 mph N/A   Partly Cloudy
12:53 PM 82.9 °F 85.8 °F 68.0 °F 60% 30.12 in 10.0 mi East 16.1 mph - N/A   Partly Cloudy
1:53 PM 82.9 °F 85.4 °F 66.9 °F 58% 30.11 in 10.0 mi ESE 15.0 mph - N/A   Partly Cloudy
2:53 PM 82.9 °F 86.5 °F 69.1 °F 63% 30.10 in 10.0 mi ESE 15.0 mph - N/A   Scattered Clouds
3:53 PM 82.0 °F 85.9 °F 70.0 °F 67% 30.09 in 10.0 mi East 12.7 mph - N/A   Scattered Clouds
4:53 PM 80.1 °F 83.2 °F 70.0 °F 71% 30.10 in 10.0 mi East 12.7 mph - N/A   Scattered Clouds
5:53 PM 78.1 °F - 70.0 °F 76% 30.10 in 10.0 mi East 11.5 mph - N/A   Mostly Cloudy
6:53 PM 78.1 °F - 69.1 °F 74% 30.11 in 10.0 mi East 12.7 mph - N/A   Scattered Clouds
7:53 PM 78.1 °F - 71.1 °F 79% 30.12 in 10.0 mi East 9.2 mph - N/A   Mostly Cloudy
8:53 PM 78.1 °F - 68.0 °F 71% 30.13 in 10.0 mi ESE 13.8 mph - N/A   Mostly Cloudy
9:53 PM 79.0 °F - 68.0 °F 69% 30.13 in 10.0 mi ESE 12.7 mph - N/A   Scattered Clouds
10:53 PM 79.0 °F - 70.0 °F 74% 30.13 in 10.0 mi ESE 13.8 mph - N/A   Partly Cloudy
11:53 PM 78.1 °F - 71.1 °F 79% 30.12 in 10.0 mi ESE 10.4 mph - N/A   Partly Cloudy